START_TIME,STEP,MOV.,M6,t_acc.,M7,t_acc.,M19,t_acc.,H36,t_acc.
1979-03-09 09:00:24.570 ,0,1,0.,12.0,0.,12.0,0.,12.0,0.,12.0
1979-03-09 09:00:36.570 ,0,1,0.,12.0,0.,12.0,0.,12.0,0.,12.0
1979-03-09 09:00:48.560 ,1,1,0.,12.0,0.,12.0,0.,12.0,0.,12.0
1979-03-09 09:01:00.560 ,1,1,0.,12.0,0.,12.0,0.,12.0,0.,12.0
1979-03-09 09:01:12.560 ,2,1,0.,12.0,0.,12.0,0.,12.0,0.,12.0
1979-03-09 09:01:24.560 ,2,1,0.,12.0,0.,12.0,0.,12.0,0.,12.0
1979-03-09 09:01:36.560 ,3,1,0.,12.0,0.,12.0,0.,12.0,0.,12.0
1979-03-09 09:01:48.560 ,3,1,0.,12.0,0.,12.0,0.,12.0,0.,12.0
1979-03-09 09:02:00.560 ,4,1,0.,12.0,0.,12.0,0.,12.0,0.,12.0
1979-03-09 09:02:12.560 ,4,1,0.,12.0,0.,12.0,0.,12.0,0.,12.0
1979-03-09 09:02:24.560 ,5,1,0.,12.0,0.,12.0,0.,12.0,0.,12.0
1979-03-09 09:02:36.560 ,5,1,0.,12.0,0.,12.0,0.,12.0,0.,12.0
1979-03-09 09:02:48.560 ,6,1,0.,12.0,0.,12.0,0.,12.0,0.,12.0
1979-03-09 09:03:00.560 ,6,1,0.,12.0,0.,12.0,0.,12.0,0.,12.0
1979-03-09 09:03:12.560 ,7,1,0.,12.0,0.,12.0,0.,12.0,0.,12.0
1979-03-09 09:03:24.560 ,7,1,0.,12.0,0.,12.0,0.,12.0,0.,12.0
1979-03-09 09:03:36.560 ,7,1,0.,12.0,0.,12.0,0.,12.0,0.,12.0
1979-03-09 09:03:48.560 ,7,1,0.,12.0,0.,12.0,0.,12.0,0.,12.0
1979-03-09 09:04:00.560 ,6,1,0.,12.0,0.,12.0,0.,12.0,0.,12.0
1979-03-09 09:04:12.560 ,6,1,0.,12.0,0.,12.0,0.,12.0,0.,12.0
1979-03-09 09:04:24.560 ,5,1,0.,12.0,0.,12.0,0.,12.0,0.,12.0
1979-03-09 09:04:36.560 ,5,1,0.,12.0,0.,12.0,0.,12.0,0.,12.0
1979-03-09 09:04:48.560 ,4,1,0.,12.0,0.,12.0,0.,12.0,0.,12.0
1979-03-09 09:05:00.560 ,4,1,0.,12.0,0.,12.0,0.,12.0,0.,12.0
1979-03-09 09:05:12.560 ,3,1,0.,12.0,0.,12.0,0.,12.0,0.,12.0
1979-03-09 09:05:24.560 ,3,1,0.,12.0,0.,12.0,0.,12.0,0.,12.0
1979-03-09 09:05:36.560 ,2,1,0.,12.0,0.,12.0,0.,12.0,0.,12.0
1979-03-09 09:05:48.560 ,2,1,0.,12.0,0.,12.0,0.,12.0,0.,12.0
1979-03-09 09:06:00.560 ,1,1,0.,12.0,0.,12.0,0.,12.0,0.,12.0
1979-03-09 09:06:12.560 ,1,1,0.,12.0,0.,12.0,0.,12.0,0.,12.0
1979-03-09 09:06:24.560 ,0,1,0.,12.0,0.,12.0,0.,12.0,0.,12.0
1979-03-09 09:06:36.560 ,0,1,0.,12.0,0.,12.0,0.,12.0,0.,12.0
1979-03-09 09:06:48.560 ,0,1,0.,12.0,0.,12.0,0.,12.0,0.,12.0
1979-03-09 09:07:00.560 ,0,1,0.,12.0,0.,12.0,0.,12.0,0.,12.0
1979-03-09 09:07:12.560 ,1,1,0.,12.0,0.,12.0,0.,12.0,0.,12.0
1979-03-09 09:07:24.560 ,1,1,0.,12.0,0.,12.0,0.,12.0,0.,12.0
1979-03-09 09:07:36.560 ,2,1,0.,12.0,0.,12.0,0.,12.0,0.,12.0
1979-03-09 09:07:48.560 ,2,1,0.,12.0,0.,12.0,0.,12.0,0.,12.0
1979-03-09 09:08:00.560 ,3,1,0.,12.0,0.,12.0,0.,12.0,0.,12.0
1979-03-09 09:08:12.560 ,3,1,0.,12.0,0.,12.0,0.,12.0,0.,12.0
1979-03-09 09:08:24.560 ,4,1,0.,12.0,0.,12.0,0.,12.0,0.,12.0
1979-03-09 09:08:36.560 ,4,1,0.,12.0,0.,12.0,0.,12.0,0.,12.0
1979-03-09 09:08:48.550 ,5,1,0.,12.0,0.,12.0,0.,12.0,0.,12.0
1979-03-09 09:09:00.560 ,5,1,0.,12.0,0.,12.0,0.,12.0,0.,12.0
1979-03-09 09:09:12.550 ,6,1,0.,12.0,0.,12.0,0.,12.0,0.,12.0
1979-03-09 09:09:24.560 ,6,1,0.,12.0,0.,12.0,0.,12.0,0.,12.0
1979-03-09 09:09:36.550 ,7,1,0.,12.0,0.,12.0,0.,12.0,0.,12.0
1979-03-09 09:09:48.560 ,7,1,0.,12.0,0.,12.0,0.,12.0,0.,12.0
1979-03-09 09:10:00.550 ,7,1,0.,12.0,0.,12.0,0.,12.0,0.,12.0
1979-03-09 09:10:12.550 ,7,1,0.,12.0,0.,12.0,0.,12.0,0.,12.0
1979-03-09 09:10:24.550 ,6,1,0.,12.0,0.,12.0,0.,12.0,0.,12.0
1979-03-09 09:10:36.550 ,6,1,0.,12.0,0.,12.0,0.,12.0,0.,12.0
1979-03-09 09:10:48.550 ,5,1,0.,12.0,0.,12.0,0.,12.0,0.,12.0
1979-03-09 09:11:00.550 ,5,1,0.,12.0,0.,12.0,0.,12.0,0.,12.0
1979-03-09 09:11:12.550 ,4,1,0.,12.0,0.,12.0,0.,12.0,0.,12.0
1979-03-09 09:11:24.550 ,4,1,0.,12.0,0.,12.0,0.,12.0,0.,12.0
1979-03-09 09:11:36.550 ,3,1,0.,12.0,0.,12.0,0.,12.0,0.,12.0
1979-03-09 09:11:48.550 ,3,1,0.,12.0,0.,12.0,0.,12.0,0.,12.0
1979-03-09 09:12:00.550 ,2,1,0.,12.0,0.,12.0,0.,12.0,0.,12.0
1979-03-09 09:12:12.550 ,2,1,0.,12.0,0.,12.0,0.,12.0,0.,12.0
1979-03-09 09:12:24.550 ,1,1,0.,12.0,0.,12.0,0.,12.0,0.,12.0
1979-03-09 09:12:36.550 ,1,1,0.,12.0,0.,12.0,0.,12.0,0.,12.0
1979-03-09 09:12:48.550 ,0,1,0.,12.0,0.,12.0,0.,12.0,0.,12.0
1979-03-09 09:13:00.550 ,0,1,0.,12.0,0.,12.0,0.,12.0,0.,12.0
1979-03-09 09:13:12.550 ,0,1,0.,12.0,0.,12.0,0.,12.0,0.,12.0
1979-03-09 09:13:24.550 ,0,1,0.,12.0,0.,12.0,0.,12.0,0.,12.0
1979-03-09 09:13:36.550 ,1,1,0.,12.0,0.,12.0,0.,12.0,0.,12.0
1979-03-09 09:13:48.550 ,1,1,0.,12.0,0.,12.0,0.,12.0,0.,12.0
1979-03-09 09:14:00.550 ,2,1,0.,12.0,0.,12.0,0.,12.0,0.,12.0
1979-03-09 09:14:12.550 ,2,1,0.,12.0,0.,12.0,0.,12.0,0.,12.0
1979-03-09 09:14:24.550 ,3,1,0.,12.0,0.,12.0,0.,12.0,0.,12.0
1979-03-09 09:14:36.550 ,3,1,0.,12.0,0.,12.0,0.,12.0,0.,12.0
1979-03-09 09:14:48.550 ,4,1,0.,12.0,0.,12.0,0.,12.0,0.,12.0
1979-03-09 09:15:00.550 ,4,1,0.,12.0,0.,12.0,0.,12.0,0.,12.0
1979-03-09 09:15:12.550 ,5,1,0.,12.0,0.,12.0,0.,12.0,0.,12.0
1979-03-09 09:15:24.550 ,5,1,0.,12.0,0.,12.0,0.,12.0,0.,12.0
1979-03-09 09:15:36.550 ,6,1,0.,12.0,0.,12.0,0.,12.0,0.,12.0
1979-03-09 09:15:48.550 ,6,1,0.,12.0,0.,12.0,0.,12.0,0.,12.0
1979-03-09 09:16:00.550 ,7,1,0.,12.0,0.,12.0,0.,12.0,0.,12.0
1979-03-09 09:16:12.550 ,7,1,0.,12.0,0.,12.0,0.,12.0,0.,12.0
1979-03-09 09:16:24.550 ,7,1,0.,12.0,0.,12.0,0.,12.0,0.,12.0
1979-03-09 09:16:36.550 ,7,1,0.,12.0,0.,12.0,0.,12.0,0.,12.0
1979-03-09 09:16:48.550 ,6,1,0.,12.0,0.,12.0,0.,12.0,0.,12.0
1979-03-09 09:17:00.550 ,6,1,0.,12.0,0.,12.0,0.,12.0,0.,12.0
1979-03-09 09:17:12.550 ,5,1,0.,12.0,0.,12.0,0.,12.0,0.,12.0
1979-03-09 09:17:24.550 ,5,1,0.,12.0,0.,12.0,0.,12.0,0.,12.0
1979-03-09 09:17:36.550 ,4,1,0.,12.0,0.,12.0,0.,12.0,0.,12.0
1979-03-09 09:17:48.550 ,4,1,0.,12.0,0.,12.0,0.,12.0,0.,12.0
1979-03-09 09:18:00.550 ,3,1,0.,12.0,0.,12.0,0.,12.0,0.,12.0
1979-03-09 09:18:12.550 ,3,1,0.,12.0,0.,12.0,0.,12.0,0.,12.0
1979-03-09 09:18:24.540 ,2,1,0.,12.0,0.,12.0,0.,12.0,0.,12.0
1979-03-09 09:18:36.540 ,2,1,0.,12.0,0.,12.0,0.,12.0,0.,12.0
1979-03-09 09:18:48.540 ,1,1,0.,12.0,0.,12.0,0.,12.0,0.,12.0
1979-03-09 09:19:00.540 ,1,1,0.,12.0,0.,12.0,0.,12.0,0.,12.0
1979-03-09 09:19:12.540 ,0,1,0.,12.0,0.,12.0,0.,12.0,0.,12.0
1979-03-09 09:19:24.540 ,0,1,0.,12.0,0.,12.0,0.,12.0,0.,12.0
1979-03-09 09:19:36.540 ,0,1,0.,12.0,0.,12.0,0.,12.0,0.,12.0
1979-03-09 09:19:48.540 ,0,1,0.,12.0,0.,12.0,0.,12.0,0.,12.0
1979-03-09 09:20:00.540 ,1,1,0.,12.0,0.,12.0,0.,12.0,0.,12.0
1979-03-09 09:20:12.540 ,1,1,0.,12.0,0.,12.0,0.,12.0,0.,12.0
1979-03-09 09:20:24.540 ,2,1,0.,12.0,0.,12.0,0.,12.0,0.,12.0
1979-03-09 09:20:36.540 ,2,1,0.,12.0,0.,12.0,0.,12.0,0.,12.0
1979-03-09 09:20:48.540 ,3,1,0.,12.0,0.,12.0,0.,12.0,0.,12.0
1979-03-09 09:21:00.540 ,3,1,0.,12.0,0.,12.0,0.,12.0,0.,12.0
1979-03-09 09:21:12.540 ,4,1,0.,12.0,0.,12.0,0.,12.0,0.,12.0
1979-03-09 09:21:24.540 ,4,1,0.,12.0,0.,12.0,0.,12.0,0.,12.0
1979-03-09 09:21:36.540 ,5,1,0.,12.0,0.,12.0,0.,12.0,0.,12.0
1979-03-09 09:21:48.540 ,5,1,0.,12.0,0.,12.0,0.,12.0,0.,12.0
1979-03-09 09:22:00.540 ,6,1,0.,12.0,0.,12.0,0.,12.0,0.,12.0
1979-03-09 09:22:12.540 ,6,1,0.,12.0,0.,12.0,0.,12.0,0.,12.0
1979-03-09 09:22:24.540 ,7,1,0.,12.0,0.,12.0,0.,12.0,0.,12.0
1979-03-09 09:22:36.540 ,7,1,0.,12.0,0.,12.0,0.,12.0,0.,12.0
1979-03-09 09:22:48.540 ,7,1,0.,12.0,0.,12.0,0.,12.0,0.,12.0
1979-03-09 09:23:00.540 ,7,1,0.,12.0,0.,12.0,0.,12.0,0.,12.0
1979-03-09 09:23:12.540 ,6,1,0.,12.0,0.,12.0,0.,12.0,0.,12.0
1979-03-09 09:23:24.540 ,6,1,0.,12.0,0.,12.0,0.,12.0,0.,12.0
1979-03-09 09:23:36.540 ,5,1,0.,12.0,0.,12.0,0.,12.0,0.,12.0
1979-03-09 09:23:48.540 ,5,1,0.,12.0,0.,12.0,0.,12.0,0.,12.0
1979-03-09 09:24:00.540 ,4,1,0.,12.0,0.,12.0,0.,12.0,0.,12.0
1979-03-09 09:24:12.540 ,4,1,0.,12.0,0.,12.0,0.,12.0,0.,12.0
1979-03-09 09:24:24.540 ,3,1,0.,12.0,0.,12.0,0.,12.0,0.,12.0
1979-03-09 09:24:36.540 ,3,1,0.,12.0,0.,12.0,0.,12.0,0.,12.0
1979-03-09 09:24:48.540 ,2,1,0.,12.0,0.,12.0,0.,12.0,0.,12.0
1979-03-09 09:25:00.540 ,2,1,1.,12.0,0.,12.0,0.,12.0,0.,12.0
1979-03-09 09:25:12.540 ,1,1,0.,12.0,0.,12.0,0.,12.0,0.,12.0
1979-03-09 09:25:24.540 ,1,1,1.,12.0,0.,12.0,0.,12.0,0.,12.0
1979-03-09 09:25:36.540 ,0,1,0.,12.0,0.,12.0,0.,12.0,0.,12.0
1979-03-09 09:25:48.540 ,0,1,0.,12.0,0.,12.0,0.,12.0,0.,12.0
1979-03-09 09:26:00.540 ,0,1,0.,12.0,0.,12.0,0.,12.0,0.,12.0
1979-03-09 09:26:12.540 ,0,1,0.,12.0,0.,12.0,0.,12.0,0.,12.0
1979-03-09 09:26:24.540 ,1,1,0.,12.0,0.,12.0,0.,12.0,0.,12.0
1979-03-09 09:26:36.540 ,1,1,0.,12.0,0.,12.0,0.,12.0,0.,12.0
1979-03-09 09:26:48.540 ,2,1,0.,12.0,0.,12.0,0.,12.0,0.,12.0
1979-03-09 09:27:00.540 ,2,1,1.,12.0,0.,12.0,0.,12.0,0.,12.0
1979-03-09 09:27:12.540 ,3,1,0.,12.0,0.,12.0,0.,12.0,0.,12.0
1979-03-09 09:27:24.540 ,3,1,0.,12.0,0.,12.0,0.,12.0,0.,12.0
1979-03-09 09:27:36.540 ,4,1,0.,12.0,0.,12.0,0.,12.0,0.,12.0
1979-03-09 09:27:48.540 ,4,1,0.,12.0,0.,12.0,0.,12.0,0.,12.0
1979-03-09 09:28:00.530 ,5,1,0.,12.0,0.,12.0,0.,12.0,0.,12.0
1979-03-09 09:28:12.530 ,5,1,0.,12.0,0.,12.0,0.,12.0,0.,12.0
1979-03-09 09:28:24.530 ,6,1,0.,12.0,0.,12.0,0.,12.0,0.,12.0
1979-03-09 09:28:36.530 ,6,1,0.,12.0,0.,12.0,0.,12.0,0.,12.0
1979-03-09 09:28:48.530 ,7,1,0.,12.0,0.,12.0,0.,12.0,0.,12.0
1979-03-09 09:29:00.530 ,7,1,0.,12.0,0.,12.0,0.,12.0,0.,12.0
1979-03-09 09:29:12.530 ,7,1,0.,12.0,0.,12.0,0.,12.0,0.,12.0
1979-03-09 09:29:24.530 ,7,1,0.,12.0,0.,12.0,0.,12.0,0.,12.0
1979-03-09 09:29:36.530 ,6,1,0.,12.0,0.,12.0,0.,12.0,0.,12.0
1979-03-09 09:29:48.530 ,6,1,0.,12.0,0.,12.0,0.,12.0,0.,12.0
1979-03-09 09:30:00.530 ,5,1,0.,12.0,0.,12.0,0.,12.0,0.,12.0
1979-03-09 09:30:12.530 ,5,1,0.,12.0,0.,12.0,0.,12.0,0.,12.0
1979-03-09 09:30:24.530 ,4,1,0.,12.0,0.,12.0,0.,12.0,0.,12.0
1979-03-09 09:30:36.530 ,4,1,0.,12.0,0.,12.0,0.,12.0,0.,12.0
1979-03-09 09:30:48.530 ,3,1,0.,12.0,0.,12.0,0.,12.0,0.,12.0
1979-03-09 09:31:00.530 ,3,1,0.,12.0,0.,12.0,0.,12.0,0.,12.0
1979-03-09 09:31:12.530 ,0,1,0.,12.0,0.,12.0,0.,12.0,0.,12.0
1979-03-09 09:31:24.530 ,0,1,0.,12.0,0.,12.0,0.,12.0,0.,12.0
1979-03-09 09:31:36.530 ,3,1,0.,12.0,0.,12.0,0.,12.0,0.,12.0
1979-03-09 09:31:48.530 ,3,1,0.,12.0,0.,12.0,0.,12.0,0.,12.0
1979-03-09 09:32:00.530 ,7,1,0.,12.0,0.,12.0,0.,12.0,0.,12.0
1979-03-09 09:32:12.530 ,7,1,0.,12.0,0.,12.0,0.,12.0,0.,12.0
1979-03-09 09:32:24.530 ,4,1,1.,12.0,0.,12.0,0.,12.0,0.,12.0
1979-03-09 09:32:36.530 ,4,1,0.,12.0,0.,12.0,0.,12.0,0.,12.0
1979-03-09 09:32:48.530 ,0,1,0.,12.0,0.,12.0,0.,12.0,0.,12.0
1979-03-09 09:33:00.530 ,0,1,0.,12.0,0.,12.0,0.,12.0,0.,12.0
1979-03-09 09:33:12.530 ,3,1,0.,12.0,0.,12.0,0.,12.0,0.,12.0
1979-03-09 09:33:24.530 ,3,1,0.,12.0,0.,12.0,0.,12.0,0.,12.0
1979-03-09 09:33:36.530 ,0,0,0.,12.0,0.,12.0,0.,12.0,0.,12.0
1979-03-09 09:33:48.530 ,0,0,,0,,0,,0,,0
1979-03-09 09:34:00.530 ,0,0,,0,,0,,0,,0
1979-03-09 09:34:12.530 ,0,0,,0,,0,,0,,0
1979-03-09 09:34:17.930 ,0,0,,0,,0,,0,,0
1979-03-09 09:34:29.930 ,0,0,,0,,0,,0,,0
1979-03-09 09:34:24.530 ,0,1,0.,12.0,0.,12.0,0.,12.0,0.,12.0
1979-03-09 09:34:36.530 ,0,1,0.,12.0,0.,12.0,0.,12.0,0.,12.0
1979-03-09 09:34:48.530 ,3,1,0.,12.0,0.,12.0,0.,12.0,0.,12.0
1979-03-09 09:35:00.530 ,3,1,0.,12.0,0.,12.0,0.,12.0,0.,12.0
1979-03-09 09:35:12.530 ,7,1,0.,12.0,0.,12.0,0.,12.0,0.,12.0
1979-03-09 09:35:24.530 ,7,1,0.,12.0,0.,12.0,0.,12.0,0.,12.0
1979-03-09 09:35:36.530 ,4,1,0.,12.0,0.,12.0,0.,12.0,0.,12.0
1979-03-09 09:35:48.530 ,4,1,0.,12.0,0.,12.0,0.,12.0,0.,12.0
1979-03-09 09:36:00.530 ,0,1,0.,12.0,0.,12.0,0.,12.0,0.,12.0
1979-03-09 09:36:12.530 ,0,1,0.,12.0,0.,12.0,0.,12.0,0.,12.0
1979-03-09 09:36:24.530 ,3,1,0.,12.0,0.,12.0,0.,12.0,0.,12.0
1979-03-09 09:36:36.530 ,3,1,0.,12.0,0.,12.0,0.,12.0,0.,12.0
1979-03-09 09:36:48.530 ,7,1,0.,12.0,0.,12.0,0.,12.0,0.,12.0
1979-03-09 09:37:00.530 ,7,1,0.,12.0,0.,12.0,0.,12.0,0.,12.0
1979-03-09 09:37:12.530 ,4,1,0.,12.0,0.,12.0,0.,12.0,0.,12.0
1979-03-09 09:37:24.530 ,4,1,0.,12.0,0.,12.0,0.,12.0,0.,12.0
1979-03-09 09:37:36.520 ,0,1,0.,12.0,0.,12.0,0.,12.0,0.,12.0
1979-03-09 09:37:48.520 ,0,1,1.,12.0,0.,12.0,0.,12.0,0.,12.0
1979-03-09 09:38:00.520 ,3,1,0.,12.0,0.,12.0,0.,12.0,0.,12.0
1979-03-09 09:38:12.520 ,3,1,0.,12.0,0.,12.0,0.,12.0,0.,12.0
1979-03-09 09:38:24.520 ,7,1,0.,12.0,0.,12.0,0.,12.0,0.,12.0
1979-03-09 09:38:36.520 ,7,1,0.,12.0,0.,12.0,0.,12.0,0.,12.0
1979-03-09 09:38:48.520 ,4,1,0.,12.0,0.,12.0,0.,12.0,0.,12.0
1979-03-09 09:39:00.520 ,4,1,0.,12.0,0.,12.0,0.,12.0,0.,12.0
1979-03-09 09:39:12.520 ,0,1,0.,12.0,0.,12.0,0.,12.0,0.,12.0
1979-03-09 09:39:24.520 ,0,1,0.,12.0,0.,12.0,0.,12.0,0.,12.0
1979-03-09 09:39:36.520 ,3,1,0.,12.0,0.,12.0,0.,12.0,0.,12.0
1979-03-09 09:39:48.520 ,3,1,0.,12.0,0.,12.0,0.,12.0,0.,12.0
1979-03-09 09:40:00.520 ,7,1,0.,12.0,0.,12.0,0.,12.0,0.,12.0
1979-03-09 09:40:12.520 ,7,1,0.,12.0,0.,12.0,0.,12.0,0.,12.0
1979-03-09 09:40:24.520 ,4,1,0.,12.0,0.,12.0,0.,12.0,0.,12.0
1979-03-09 09:40:36.520 ,4,1,0.,12.0,0.,12.0,0.,12.0,0.,12.0
1979-03-09 09:40:48.520 ,0,1,0.,12.0,0.,12.0,0.,12.0,0.,12.0
1979-03-09 09:41:00.520 ,0,1,0.,12.0,0.,12.0,0.,12.0,0.,12.0
1979-03-09 09:41:12.520 ,3,1,0.,12.0,0.,12.0,0.,12.0,0.,12.0
1979-03-09 09:41:24.520 ,3,1,1.,12.0,0.,12.0,0.,12.0,0.,12.0
1979-03-09 09:41:36.520 ,7,1,0.,12.0,0.,12.0,0.,12.0,0.,12.0
1979-03-09 09:41:48.520 ,7,1,0.,12.0,0.,12.0,0.,12.0,0.,12.0
1979-03-09 09:42:00.520 ,4,1,0.,12.0,0.,12.0,0.,12.0,0.,12.0
1979-03-09 09:42:12.520 ,4,1,1.,12.0,0.,12.0,0.,12.0,0.,12.0
1979-03-09 09:42:24.520 ,0,1,0.,12.0,0.,12.0,0.,12.0,0.,12.0
1979-03-09 09:42:36.520 ,0,1,0.,12.0,0.,12.0,0.,12.0,0.,12.0
1979-03-09 09:42:48.520 ,3,1,0.,12.0,0.,12.0,0.,12.0,0.,12.0
1979-03-09 09:43:00.520 ,3,1,0.,12.0,0.,12.0,0.,12.0,0.,12.0
1979-03-09 09:43:12.520 ,7,1,0.,12.0,0.,12.0,0.,12.0,0.,12.0
1979-03-09 09:43:24.520 ,7,1,0.,12.0,0.,12.0,0.,12.0,0.,12.0
1979-03-09 09:43:36.520 ,4,1,0.,12.0,0.,12.0,0.,12.0,0.,12.0
1979-03-09 09:43:48.520 ,4,1,0.,12.0,0.,12.0,0.,12.0,0.,12.0
1979-03-09 09:44:00.520 ,0,1,0.,12.0,0.,12.0,0.,12.0,0.,12.0
1979-03-09 09:44:12.520 ,0,1,0.,12.0,0.,12.0,0.,12.0,0.,12.0
1979-03-09 09:44:24.520 ,3,1,0.,12.0,0.,12.0,0.,12.0,0.,12.0
1979-03-09 09:44:36.520 ,3,1,0.,12.0,0.,12.0,0.,12.0,0.,12.0
1979-03-09 09:44:48.520 ,7,1,0.,12.0,0.,12.0,0.,12.0,0.,12.0
1979-03-09 09:45:00.520 ,7,1,0.,12.0,0.,12.0,0.,12.0,0.,12.0
1979-03-09 09:45:12.520 ,4,1,0.,12.0,0.,12.0,0.,12.0,0.,12.0
1979-03-09 09:45:24.520 ,4,1,0.,12.0,0.,12.0,0.,12.0,0.,12.0
1979-03-09 09:45:36.520 ,0,1,0.,12.0,0.,12.0,0.,12.0,0.,12.0
1979-03-09 09:45:48.520 ,0,1,0.,12.0,0.,12.0,0.,12.0,0.,12.0
1979-03-09 09:46:00.520 ,3,1,0.,12.0,0.,12.0,0.,12.0,0.,12.0
1979-03-09 09:46:12.520 ,3,1,0.,12.0,0.,12.0,0.,12.0,0.,12.0
1979-03-09 09:46:24.510 ,7,1,0.,12.0,0.,12.0,0.,12.0,0.,12.0
1979-03-09 09:46:36.510 ,7,1,0.,12.0,0.,12.0,0.,12.0,0.,12.0
1979-03-09 09:46:48.510 ,4,1,0.,12.0,0.,12.0,0.,12.0,0.,12.0
1979-03-09 09:47:00.510 ,4,1,0.,12.0,0.,12.0,0.,12.0,0.,12.0
1979-03-09 09:47:12.510 ,0,1,0.,12.0,0.,12.0,0.,12.0,0.,12.0
1979-03-09 09:47:24.510 ,0,1,0.,12.0,0.,12.0,0.,12.0,0.,12.0
1979-03-09 09:47:36.510 ,3,1,0.,12.0,0.,12.0,0.,12.0,0.,12.0
1979-03-09 09:47:48.510 ,3,1,0.,12.0,0.,12.0,0.,12.0,0.,12.0
1979-03-09 09:48:00.510 ,7,1,0.,12.0,0.,12.0,0.,12.0,0.,12.0
1979-03-09 09:48:12.510 ,7,1,0.,12.0,0.,12.0,0.,12.0,0.,12.0
1979-03-09 09:48:24.510 ,4,1,0.,12.0,0.,12.0,0.,12.0,0.,12.0
1979-03-09 09:48:36.510 ,4,1,0.,12.0,0.,12.0,0.,12.0,0.,12.0
1979-03-09 09:48:48.510 ,0,1,0.,12.0,0.,12.0,0.,12.0,0.,12.0
1979-03-09 09:49:00.510 ,0,1,0.,12.0,0.,12.0,0.,12.0,0.,12.0
1979-03-09 09:49:12.510 ,3,1,0.,12.0,0.,12.0,0.,12.0,0.,12.0
1979-03-09 09:49:24.510 ,3,1,0.,12.0,0.,12.0,0.,12.0,0.,12.0
1979-03-09 09:49:36.510 ,7,1,0.,12.0,0.,12.0,0.,12.0,0.,12.0
1979-03-09 09:49:48.510 ,7,1,0.,12.0,0.,12.0,0.,12.0,0.,12.0
1979-03-09 09:50:00.510 ,4,1,0.,12.0,0.,12.0,0.,12.0,0.,12.0
1979-03-09 09:50:12.510 ,4,1,0.,12.0,0.,12.0,0.,12.0,0.,12.0
1979-03-09 09:50:24.510 ,0,1,0.,12.0,0.,12.0,0.,12.0,0.,12.0
1979-03-09 09:50:36.510 ,0,1,0.,12.0,0.,12.0,0.,12.0,0.,12.0
1979-03-09 09:50:48.510 ,3,1,0.,12.0,0.,12.0,0.,12.0,0.,12.0
1979-03-09 09:51:00.510 ,3,1,0.,12.0,0.,12.0,0.,12.0,0.,12.0
1979-03-09 09:51:12.510 ,7,1,0.,12.0,0.,12.0,0.,12.0,0.,12.0
1979-03-09 09:51:24.510 ,7,1,0.,12.0,0.,12.0,0.,12.0,0.,12.0
1979-03-09 09:51:36.510 ,4,1,0.,12.0,0.,12.0,0.,12.0,0.,12.0
1979-03-09 09:51:48.510 ,4,1,0.,12.0,0.,12.0,0.,12.0,0.,12.0
1979-03-09 09:52:00.510 ,0,1,0.,12.0,0.,12.0,0.,12.0,0.,12.0
1979-03-09 09:52:12.510 ,0,1,0.,12.0,0.,12.0,0.,12.0,0.,12.0
1979-03-09 09:52:24.510 ,3,1,1.,12.0,0.,12.0,0.,12.0,0.,12.0
1979-03-09 09:52:36.510 ,3,1,0.,12.0,0.,12.0,0.,12.0,0.,12.0
1979-03-09 09:52:48.510 ,7,1,0.,12.0,0.,12.0,0.,12.0,0.,12.0
1979-03-09 09:53:00.510 ,7,1,0.,12.0,0.,12.0,0.,12.0,0.,12.0
1979-03-09 09:53:12.510 ,4,1,0.,12.0,0.,12.0,0.,12.0,0.,12.0
1979-03-09 09:53:24.510 ,4,1,0.,12.0,0.,12.0,0.,12.0,0.,12.0
1979-03-09 09:53:36.510 ,0,1,0.,12.0,0.,12.0,0.,12.0,0.,12.0
1979-03-09 09:53:48.510 ,0,1,0.,12.0,0.,12.0,0.,12.0,0.,12.0
1979-03-09 09:54:00.510 ,3,1,0.,12.0,0.,12.0,0.,12.0,0.,12.0
1979-03-09 09:54:12.510 ,3,1,0.,12.0,0.,12.0,0.,12.0,0.,12.0
1979-03-09 09:54:24.510 ,7,1,0.,12.0,0.,12.0,0.,12.0,0.,12.0
1979-03-09 09:54:36.510 ,7,1,0.,12.0,0.,12.0,0.,12.0,0.,12.0
1979-03-09 09:54:48.510 ,4,1,0.,12.0,0.,12.0,0.,12.0,0.,12.0
1979-03-09 09:55:00.510 ,4,1,0.,12.0,0.,12.0,0.,12.0,0.,12.0
1979-03-09 09:55:12.500 ,0,1,0.,12.0,0.,12.0,0.,12.0,0.,12.0
1979-03-09 09:55:24.500 ,0,1,0.,12.0,0.,12.0,0.,12.0,0.,12.0
1979-03-09 09:55:36.500 ,3,1,0.,12.0,0.,12.0,0.,12.0,0.,12.0
1979-03-09 09:55:48.500 ,3,1,0.,12.0,0.,12.0,0.,12.0,0.,12.0
1979-03-09 09:56:00.500 ,7,1,0.,12.0,0.,12.0,0.,12.0,0.,12.0
1979-03-09 09:56:12.500 ,7,1,0.,12.0,0.,12.0,0.,12.0,0.,12.0
1979-03-09 09:56:24.500 ,4,1,0.,12.0,0.,12.0,0.,12.0,0.,12.0
1979-03-09 09:56:36.500 ,4,1,0.,12.0,0.,12.0,0.,12.0,0.,12.0
1979-03-09 09:56:48.500 ,0,1,0.,12.0,0.,12.0,0.,12.0,0.,12.0
1979-03-09 09:57:00.500 ,0,1,0.,12.0,0.,12.0,0.,12.0,0.,12.0
1979-03-09 09:57:12.500 ,3,1,0.,12.0,0.,12.0,0.,12.0,0.,12.0
1979-03-09 09:57:24.500 ,3,1,0.,12.0,0.,12.0,0.,12.0,0.,12.0
1979-03-09 09:57:36.500 ,7,1,0.,12.0,0.,12.0,0.,12.0,0.,12.0
1979-03-09 09:57:48.500 ,7,1,0.,12.0,0.,12.0,0.,12.0,0.,12.0
1979-03-09 09:58:00.500 ,4,1,0.,12.0,0.,12.0,0.,12.0,0.,12.0
1979-03-09 09:58:12.500 ,4,1,0.,12.0,0.,12.0,0.,12.0,0.,12.0
1979-03-09 09:58:24.500 ,0,1,0.,12.0,0.,12.0,0.,12.0,0.,12.0
1979-03-09 09:58:36.500 ,0,1,0.,12.0,0.,12.0,0.,12.0,0.,12.0
1979-03-09 09:58:48.500 ,3,1,0.,12.0,0.,12.0,0.,12.0,0.,12.0
1979-03-09 09:59:00.500 ,3,1,0.,12.0,0.,12.0,0.,12.0,0.,12.0
1979-03-09 09:59:12.500 ,7,1,1.,12.0,0.,12.0,0.,12.0,0.,12.0
1979-03-09 09:59:24.500 ,7,1,0.,12.0,0.,12.0,0.,12.0,0.,12.0
1979-03-09 09:59:36.500 ,4,1,0.,12.0,0.,12.0,0.,12.0,0.,12.0
1979-03-09 09:59:48.500 ,4,1,1.,12.0,0.,12.0,0.,12.0,0.,12.0
1979-03-09 10:00:00.500 ,0,1,0.,12.0,0.,12.0,0.,12.0,0.,12.0
1979-03-09 10:00:12.500 ,0,1,0.,12.0,0.,12.0,0.,12.0,0.,12.0
1979-03-09 10:00:24.500 ,3,1,0.,12.0,0.,12.0,0.,12.0,0.,12.0
1979-03-09 10:00:36.500 ,3,1,0.,12.0,0.,12.0,0.,12.0,0.,12.0
1979-03-09 10:00:48.500 ,7,1,0.,12.0,0.,12.0,0.,12.0,0.,12.0
1979-03-09 10:01:00.500 ,7,1,0.,12.0,0.,12.0,0.,12.0,0.,12.0
1979-03-09 10:01:12.500 ,4,1,0.,12.0,0.,12.0,0.,12.0,0.,12.0
1979-03-09 10:01:24.500 ,4,1,0.,12.0,0.,12.0,0.,12.0,0.,12.0
1979-03-09 10:01:36.500 ,0,1,0.,12.0,0.,12.0,0.,12.0,0.,12.0
1979-03-09 10:01:48.500 ,0,1,0.,12.0,0.,12.0,0.,12.0,0.,12.0
1979-03-09 10:02:00.500 ,3,1,0.,12.0,0.,12.0,0.,12.0,0.,12.0
1979-03-09 10:02:12.500 ,3,1,0.,12.0,0.,12.0,0.,12.0,0.,12.0
1979-03-09 10:02:24.500 ,7,1,0.,12.0,0.,12.0,0.,12.0,0.,12.0
1979-03-09 10:02:36.500 ,7,1,0.,12.0,0.,12.0,0.,12.0,0.,12.0
1979-03-09 10:02:48.500 ,4,1,0.,12.0,0.,12.0,0.,12.0,0.,12.0
1979-03-09 10:03:00.500 ,4,1,0.,12.0,0.,12.0,0.,12.0,0.,12.0
1979-03-09 10:03:12.500 ,0,1,0.,12.0,0.,12.0,0.,12.0,0.,12.0
1979-03-09 10:03:24.500 ,0,1,0.,12.0,0.,12.0,0.,12.0,0.,12.0
1979-03-09 10:03:36.500 ,3,1,0.,12.0,0.,12.0,0.,12.0,0.,12.0
1979-03-09 10:03:48.500 ,3,1,0.,12.0,0.,12.0,0.,12.0,0.,12.0
1979-03-09 10:04:00.500 ,7,1,0.,12.0,0.,12.0,0.,12.0,0.,12.0
1979-03-09 10:04:12.500 ,7,1,0.,12.0,0.,12.0,0.,12.0,0.,12.0
1979-03-09 10:04:24.490 ,4,1,0.,12.0,0.,12.0,0.,12.0,0.,12.0
1979-03-09 10:04:36.490 ,4,1,0.,12.0,0.,12.0,0.,12.0,0.,12.0
1979-03-09 10:04:48.490 ,0,1,0.,12.0,0.,12.0,0.,12.0,0.,12.0
1979-03-09 10:05:00.490 ,0,1,0.,12.0,0.,12.0,0.,12.0,0.,12.0
1979-03-09 10:05:12.490 ,3,1,0.,12.0,0.,12.0,0.,12.0,0.,12.0
1979-03-09 10:05:24.490 ,3,1,0.,12.0,0.,12.0,0.,12.0,0.,12.0
1979-03-09 10:05:36.490 ,7,1,0.,12.0,0.,12.0,0.,12.0,0.,12.0
1979-03-09 10:05:48.490 ,7,1,0.,12.0,0.,12.0,0.,12.0,0.,12.0
1979-03-09 10:06:00.490 ,4,1,0.,12.0,0.,12.0,0.,12.0,0.,12.0
1979-03-09 10:06:12.490 ,4,1,0.,12.0,0.,12.0,0.,12.0,0.,12.0
1979-03-09 10:06:24.490 ,0,1,0.,12.0,0.,12.0,0.,12.0,0.,12.0
1979-03-09 10:06:36.490 ,0,1,0.,12.0,0.,12.0,0.,12.0,0.,12.0
1979-03-09 10:06:48.490 ,3,1,0.,12.0,0.,12.0,0.,12.0,0.,12.0
1979-03-09 10:07:00.490 ,3,1,0.,12.0,0.,12.0,0.,12.0,0.,12.0
1979-03-09 10:07:12.490 ,7,1,1.,12.0,0.,12.0,0.,12.0,0.,12.0
1979-03-09 10:07:24.490 ,7,1,0.,12.0,0.,12.0,0.,12.0,0.,12.0
1979-03-09 10:07:36.490 ,4,1,0.,12.0,0.,12.0,0.,12.0,0.,12.0
1979-03-09 10:07:48.490 ,4,1,0.,12.0,0.,12.0,0.,12.0,0.,12.0
1979-03-09 10:08:00.490 ,0,1,0.,12.0,0.,12.0,0.,12.0,0.,12.0
1979-03-09 10:08:12.490 ,0,1,0.,12.0,0.,12.0,0.,12.0,0.,12.0
1979-03-09 10:08:24.490 ,3,1,1.,12.0,0.,12.0,0.,12.0,0.,12.0
1979-03-09 10:08:36.490 ,3,1,0.,12.0,0.,12.0,0.,12.0,0.,12.0
1979-03-09 10:08:48.490 ,7,1,0.,12.0,0.,12.0,0.,12.0,0.,12.0
1979-03-09 10:09:00.490 ,7,1,0.,12.0,0.,12.0,0.,12.0,0.,12.0
1979-03-09 10:09:12.490 ,4,1,0.,12.0,0.,12.0,0.,12.0,0.,12.0
1979-03-09 10:09:24.490 ,4,1,0.,12.0,0.,12.0,0.,12.0,0.,12.0
1979-03-09 10:09:36.490 ,0,1,0.,12.0,0.,12.0,0.,12.0,0.,12.0
1979-03-09 10:09:48.490 ,0,1,0.,12.0,0.,12.0,0.,12.0,0.,12.0
1979-03-09 10:10:00.490 ,3,1,0.,12.0,0.,12.0,0.,12.0,0.,12.0
1979-03-09 10:10:12.490 ,3,1,0.,12.0,0.,12.0,0.,12.0,0.,12.0
1979-03-09 10:10:24.490 ,7,1,0.,12.0,0.,12.0,0.,12.0,0.,12.0
1979-03-09 10:10:36.490 ,7,1,0.,12.0,0.,12.0,0.,12.0,0.,12.0
1979-03-09 10:10:48.490 ,4,1,0.,12.0,0.,12.0,0.,12.0,0.,12.0
1979-03-09 10:11:00.490 ,4,1,0.,12.0,0.,12.0,0.,12.0,0.,12.0
1979-03-09 10:11:12.490 ,0,1,0.,12.0,0.,12.0,0.,12.0,0.,12.0
1979-03-09 10:11:24.490 ,0,1,0.,12.0,0.,12.0,0.,12.0,0.,12.0
1979-03-09 10:11:36.490 ,3,1,0.,12.0,0.,12.0,0.,12.0,0.,12.0
1979-03-09 10:11:48.490 ,3,1,0.,12.0,0.,12.0,0.,12.0,0.,12.0
1979-03-09 10:12:00.490 ,7,1,0.,12.0,0.,12.0,0.,12.0,0.,12.0
1979-03-09 10:12:12.490 ,7,1,0.,12.0,0.,12.0,0.,12.0,0.,12.0
1979-03-09 10:12:24.490 ,4,1,0.,12.0,0.,12.0,0.,12.0,0.,12.0
1979-03-09 10:12:36.490 ,4,1,0.,12.0,0.,12.0,0.,12.0,0.,12.0
1979-03-09 10:12:48.480 ,0,1,0.,12.0,0.,12.0,0.,12.0,0.,12.0
1979-03-09 10:13:00.490 ,0,1,0.,12.0,0.,12.0,0.,12.0,0.,12.0
1979-03-09 10:13:12.480 ,3,1,0.,12.0,0.,12.0,0.,12.0,0.,12.0
1979-03-09 10:13:24.490 ,3,1,0.,12.0,0.,12.0,0.,12.0,0.,12.0
1979-03-09 10:13:36.480 ,7,1,0.,12.0,0.,12.0,0.,12.0,0.,12.0
1979-03-09 10:13:48.480 ,7,1,0.,12.0,0.,12.0,0.,12.0,0.,12.0
1979-03-09 10:14:00.480 ,4,1,0.,12.0,0.,12.0,0.,12.0,0.,12.0
1979-03-09 10:14:12.480 ,4,1,0.,12.0,0.,12.0,0.,12.0,0.,12.0
1979-03-09 10:14:24.480 ,0,1,0.,12.0,0.,12.0,0.,12.0,0.,12.0
1979-03-09 10:14:36.480 ,0,1,0.,12.0,0.,12.0,0.,12.0,0.,12.0
1979-03-09 10:14:48.480 ,3,1,0.,12.0,0.,12.0,0.,12.0,0.,12.0
1979-03-09 10:15:00.480 ,3,1,1.,12.0,0.,12.0,0.,12.0,0.,12.0
1979-03-09 10:15:12.480 ,7,1,0.,12.0,0.,12.0,0.,12.0,0.,12.0
1979-03-09 10:15:24.480 ,7,1,0.,12.0,0.,12.0,0.,12.0,0.,12.0
1979-03-09 10:15:36.480 ,4,1,0.,12.0,0.,12.0,0.,12.0,0.,12.0
1979-03-09 10:15:48.480 ,4,1,1.,12.0,0.,12.0,0.,12.0,0.,12.0
1979-03-09 10:16:00.480 ,0,1,0.,12.0,0.,12.0,0.,12.0,0.,12.0
1979-03-09 10:16:12.480 ,0,1,0.,12.0,0.,12.0,0.,12.0,0.,12.0
1979-03-09 10:16:24.480 ,3,1,0.,12.0,0.,12.0,0.,12.0,0.,12.0
1979-03-09 10:16:36.480 ,3,1,0.,12.0,0.,12.0,0.,12.0,0.,12.0
1979-03-09 10:16:48.480 ,7,1,0.,12.0,0.,12.0,0.,12.0,0.,12.0
1979-03-09 10:17:00.480 ,7,1,0.,12.0,0.,12.0,0.,12.0,0.,12.0
1979-03-09 10:17:12.480 ,4,1,0.,12.0,0.,12.0,0.,12.0,0.,12.0